Back to catalog

STARLINK-38061

AliveCommunicationsSSO
NORAD 69715·PAYLOAD·🇺🇸 United States

Launched Jun 28, 2026 from Vandenberg Space Force Base

Loading…

Next Passes (next 24 hours)

TLE

FreshSource: CelesTrak SupGP

Epoch: Sep 14, 2026, 14:40 UTC

1 69715C 26147M   26257.61159722  .00012086  00000+0  37516-3 0  2571
2 69715  97.2836 294.0512 0001414  97.7249 171.3692 15.33433285    13

Track STARLINK-38061 in real time with AllMySat

Download on the App Store